• In Uzbekistan
  • List of Countries
  • For 7 days
  • Water Temperature
  • Weather Map
  • Weather Widgets
  • user-avatar
    Login

    Hourly Weather Oruro

    Today, 26 May, Tuesday

    Time Temperature Precipitation Wind Pressure Humidity
    00:00 +4°C° 0 mm 2 mps 476 mmHg 35%
    01:00 +4°C° 0 mm 1 mps 476 mmHg 38%
    02:00 +3°C° 0 mm 1 mps 475 mmHg 39%
    03:00 +3°C° 0 mm 1 mps 475 mmHg 41%
    04:00 +2°C° 0 mm 1 mps 474 mmHg 44%
    05:00 +2°C° 0 mm 1 mps 474 mmHg 46%
    06:00 +3°C° 0 mm 1 mps 475 mmHg 45%
    07:00 +4°C° 0 mm 1 mps 476 mmHg 44%
    08:00 +6°C° 0 mm 1 mps 478 mmHg 42%
    09:00 +7°C° 0 mm 1 mps 479 mmHg 36%
    10:00 +9°C° 0 mm 1 mps 480 mmHg 30%
    11:00 +11°C° 0 mm 1 mps 481 mmHg 23%
    12:00 +12°C° 0 mm 1 mps 481 mmHg 21%
    13:00 +13°C° 0 mm 1 mps 481 mmHg 18%
    14:00 +14°C° 0 mm 1 mps 481 mmHg 15%
    15:00 +14°C° 0 mm 1 mps 481 mmHg 16%
    16:00 +14°C° 0 mm 1 mps 481 mmHg 16%
    17:00 +14°C° 0 mm 1 mps 480 mmHg 16%
    18:00 +12°C° 0 mm 2 mps 479 mmHg 21%
    19:00 +9°C° 0 mm 2 mps 478 mmHg 27%
    20:00 +7°C° 0 mm 2 mps 478 mmHg 33%
    21:00 +7°C° 0 mm 1 mps 477 mmHg 36%
    22:00 +6°C° 0 mm 1 mps 477 mmHg 39%
    23:00 +6°C° 0 mm 1 mps 476 mmHg 42%

    Tomorrow, 27 May, Wednesday

    Time Temperature Precipitation Wind Pressure Humidity
    00:00 +5°C° 0 mm 1 mps 475 mmHg 43%
    01:00 +3°C° 0 mm 0 mps 475 mmHg 45%
    02:00 +3°C° 0 mm 0 mps 474 mmHg 46%
    03:00 +2°C° 0 mm 0 mps 473 mmHg 47%
    04:00 +2°C° 0 mm 0 mps 473 mmHg 47%
    05:00 +1°C° 0 mm 0 mps 473 mmHg 48%
    06:00 +2°C° 0 mm 0 mps 474 mmHg 46%
    07:00 +4°C° 0 mm 0 mps 475 mmHg 45%
    08:00 +5°C° 0 mm 0 mps 477 mmHg 44%
    09:00 +7°C° 0 mm 0 mps 478 mmHg 36%
    10:00 +9°C° 0 mm 0 mps 479 mmHg 27%
    11:00 +12°C° 0 mm 1 mps 480 mmHg 19%
    12:00 +13°C° 0 mm 1 mps 480 mmHg 17%
    13:00 +14°C° 0 mm 1 mps 480 mmHg 14%
    14:00 +15°C° 0 mm 1 mps 480 mmHg 12%
    15:00 +15°C° 0 mm 1 mps 480 mmHg 12%
    16:00 +15°C° 0 mm 2 mps 479 mmHg 13%
    17:00 +15°C° 0 mm 2 mps 479 mmHg 13%
    18:00 +12°C° 0 mm 2 mps 478 mmHg 17%
    19:00 +9°C° 0 mm 2 mps 477 mmHg 21%
    20:00 +8°C° 0 mm 1 mps 475 mmHg 25%
    21:00 +8°C° 0 mm 1 mps 475 mmHg 27%
    22:00 +7°C° 0 mm 1 mps 475 mmHg 28%
    23:00 +6°C° 0 mm 1 mps 474 mmHg 30%

    Day after tomorrow, 28 May, Thursday

    Time Temperature Precipitation Wind Pressure Humidity
    00:00 +5°C° 0 mm 1 mps 474 mmHg 32%
    01:00 +5°C° 0 mm 1 mps 473 mmHg 34%
    02:00 +3°C° 0 mm 0 mps 472 mmHg 36%
    03:00 +2°C° 0 mm 0 mps 472 mmHg 37%
    04:00 +2°C° 0 mm 0 mps 471 mmHg 37%
    05:00 +1°C° 0 mm 0 mps 471 mmHg 37%
    06:00 +3°C° 0 mm 0 mps 472 mmHg 37%
    07:00 +5°C° 0 mm 1 mps 474 mmHg 37%
    08:00 +6°C° 0 mm 1 mps 475 mmHg 36%
    09:00 +8°C° 0 mm 1 mps 476 mmHg 31%
    10:00 +10°C° 0 mm 1 mps 477 mmHg 26%
    11:00 +12°C° 0 mm 2 mps 478 mmHg 20%
    12:00 +13°C° 0 mm 2 mps 478 mmHg 18%
    13:00 +14°C° 0 mm 2 mps 478 mmHg 16%
    14:00 +14°C° 0 mm 3 mps 478 mmHg 14%
    15:00 +15°C° 0 mm 2 mps 478 mmHg 14%
    16:00 +15°C° 0 mm 2 mps 478 mmHg 14%
    17:00 +15°C° 0 mm 2 mps 477 mmHg 14%
    18:00 +13°C° 0 mm 2 mps 476 mmHg 17%
    19:00 +10°C° 0 mm 2 mps 476 mmHg 20%
    20:00 +8°C° 0 mm 2 mps 475 mmHg 23%
    21:00 +7°C° 0 mm 2 mps 474 mmHg 25%
    22:00 +6°C° 0 mm 2 mps 474 mmHg 27%
    23:00 +7°C° 0 mm 1 mps 474 mmHg 28%

    29 May, Friday

    Time Temperature Precipitation Wind Pressure Humidity
    00:00 +6°C° 0 mm 1 mps 473 mmHg 31%
    01:00 +5°C° 0 mm 1 mps 473 mmHg 34%
    02:00 +4°C° 0 mm 1 mps 472 mmHg 36%
    03:00 +4°C° 0 mm 1 mps 472 mmHg 38%
    04:00 +3°C° 0 mm 1 mps 471 mmHg 40%
    05:00 +2°C° 0 mm 1 mps 471 mmHg 42%
    06:00 +3°C° 0 mm 1 mps 472 mmHg 41%
    07:00 +5°C° 0 mm 1 mps 473 mmHg 39%
    08:00 +6°C° 0 mm 1 mps 475 mmHg 38%
    09:00 +8°C° 0 mm 1 mps 476 mmHg 32%
    10:00 +10°C° 0 mm 1 mps 477 mmHg 26%
    11:00 +12°C° 0 mm 1 mps 478 mmHg 20%
    12:00 +13°C° 0 mm 1 mps 478 mmHg 18%
    13:00 +14°C° 0 mm 1 mps 478 mmHg 16%
    14:00 +15°C° 0 mm 1 mps 478 mmHg 14%
    15:00 +15°C° 0 mm 1 mps 478 mmHg 14%
    16:00 +15°C° 0 mm 1 mps 478 mmHg 15%
    17:00 +15°C° 0 mm 2 mps 477 mmHg 15%
    18:00 +13°C° 0 mm 2 mps 476 mmHg 22%
    19:00 +10°C° 0 mm 2 mps 476 mmHg 29%
    20:00 +8°C° 0 mm 2 mps 475 mmHg 36%
    21:00 +7°C° 0 mm 2 mps 475 mmHg 40%
    22:00 +7°C° 0 mm 2 mps 474 mmHg 43%
    23:00 +6°C° 0 mm 2 mps 474 mmHg 47%

    30 May, Saturday

    Time Temperature Precipitation Wind Pressure Humidity
    00:00 +6°C° 0 mm 2 mps 474 mmHg 48%
    01:00 +5°C° 0 mm 2 mps 474 mmHg 49%
    02:00 +5°C° 0 mm 2 mps 473 mmHg 50%
    03:00 +4°C° 0 mm 2 mps 473 mmHg 52%
    04:00 +4°C° 0 mm 2 mps 473 mmHg 53%
    05:00 +3°C° 0 mm 2 mps 472 mmHg 55%
    06:00 +4°C° 0 mm 2 mps 473 mmHg 54%
    07:00 +4°C° 0 mm 2 mps 474 mmHg 53%
    08:00 +5°C° 0 mm 2 mps 475 mmHg 52%
    09:00 +7°C° 0 mm 3 mps 477 mmHg 42%
    10:00 +8°C° 0 mm 4 mps 478 mmHg 32%
    11:00 +10°C° 0 mm 5 mps 479 mmHg 21%
    12:00 +11°C° 0 mm 6 mps 479 mmHg 20%
    13:00 +13°C° 0 mm 6 mps 479 mmHg 19%
    14:00 +14°C° 0 mm 7 mps 479 mmHg 18%
    15:00 +12°C° 0 mm 7 mps 478 mmHg 21%
    16:00 +11°C° 0 mm 6 mps 477 mmHg 24%
    17:00 +11°C° 0 mm 6 mps 477 mmHg 27%
    18:00 +9°C° 0 mm 5 mps 476 mmHg 37%
    19:00 +7°C° 0 mm 5 mps 475 mmHg 47%
    20:00 +5°C° 0 mm 4 mps 475 mmHg 57%
    21:00 +4°C° 0 mm 3 mps 474 mmHg 61%
    22:00 +4°C° 0 mm 2 mps 474 mmHg 65%
    23:00 +4°C° 0 mm 1 mps 474 mmHg 69%

    31 May, Sunday

    Time Temperature Precipitation Wind Pressure Humidity
    00:00 +3°C° 0 mm 2 mps 474 mmHg 71%
    01:00 +2°C° 0 mm 2 mps 473 mmHg 73%
    02:00 +2°C° 0 mm 2 mps 473 mmHg 76%
    03:00 +1°C° 0 mm 2 mps 473 mmHg 77%
    04:00 +1°C° 0 mm 2 mps 472 mmHg 79%
    05:00 -1°C° 0 mm 2 mps 472 mmHg 80%
    06:00 +1°C° 0 mm 2 mps 473 mmHg 78%
    07:00 +3°C° 0 mm 1 mps 474 mmHg 75%
    08:00 +3°C° 0 mm 1 mps 474 mmHg 72%
    09:00 +3°C° 0 mm 3 mps 476 mmHg 64%
    10:00 +5°C° 0 mm 4 mps 477 mmHg 56%
    11:00 +7°C° 0 mm 5 mps 478 mmHg 48%
    12:00 +8°C° 0 mm 6 mps 478 mmHg 45%
    13:00 +9°C° 0 mm 6 mps 478 mmHg 41%
    14:00 +10°C° 0 mm 7 mps 478 mmHg 38%
    15:00 +10°C° 0 mm 7 mps 477 mmHg 39%
    16:00 +10°C° 0 mm 6 mps 477 mmHg 39%
    17:00 +10°C° 0 mm 6 mps 477 mmHg 40%
    18:00 +9°C° 0 mm 5 mps 477 mmHg 45%
    19:00 +9°C° 0 mm 3 mps 476 mmHg 50%
    20:00 +8°C° 0 mm 2 mps 476 mmHg 54%
    21:00 +7°C° 0.1 mm 2 mps 476 mmHg 59%
    22:00 +6°C° 0.1 mm 2 mps 476 mmHg 64%
    23:00 +5°C° 0.1 mm 2 mps 476 mmHg 69%
    Show more